Simultaneous Nadir Overpasses (SNOs) Predictions

Prediction of SNOs between AQUA and METOP-B Satellite Orbit:

Table of predicted SNOs for the next 14.0 days since TLE Epoch: 3/19/2016
Index Date (AQUA) Time (AQUA) Lat,Lon (AQUA) SZA (AQUA ) Date (METOP-B) Time (METOP-B) Lat,Lon (METOP-B) SZA (METOP-B ) Distance(km) Time Diff (sec)
1 03/20/2016 07:10:49 -73.85,-113.44 106.14 03/20/2016 07:09:39 -73.83,-113.38 106.16 3.15 70
2 03/20/2016 08:00:17 73.87, 54.13 73.87 03/20/2016 08:00:18 73.86, 54.04 73.87 3.29 1
3 03/20/2016 08:49:44 -73.94,-138.38 106.07 03/20/2016 08:50:58 -73.96,-138.41 106.07 1.80 74
4 03/23/2016 02:45:08 -73.83, -46.98 107.29 03/23/2016 02:44:03 -73.81, -47.03 107.29 2.77 65
5 03/23/2016 03:34:37 73.91, 120.48 72.79 03/23/2016 03:34:41 73.89, 120.50 72.77 2.86 4
6 03/23/2016 04:24:07 -74.13, -72.38 106.99 03/23/2016 04:25:18 -74.13, -71.57 107.02 24.47 71
7 03/25/2016 22:19:27 -73.82, 19.46 108.41 03/25/2016 22:18:26 -73.83, 19.44 108.38 1.52 61
8 03/25/2016 23:08:56 73.91,-173.10 71.68 03/25/2016 23:09:04 73.91,-173.05 71.68 1.67 8
9 03/25/2016 23:58:29 -74.28, -6.30 107.94 03/25/2016 23:59:39 -74.26, -4.85 108.02 43.68 70
10 03/28/2016 17:53:45 -73.83, 85.86 109.50 03/28/2016 17:52:49 -73.81, 85.79 109.51 3.05 56
11 03/28/2016 18:43:14 73.92,-106.71 70.59 03/28/2016 18:43:26 73.93,-106.59 70.59 3.70 12
12 03/28/2016 19:32:50 -74.44, 59.73 108.87 03/28/2016 19:33:58 -74.43, 61.99 108.97 67.44 68
13 03/31/2016 13:28:04 -73.86, 152.23 110.58 03/31/2016 13:27:12 -73.84, 152.25 110.59 2.31 52
14 03/31/2016 14:17:32 73.90, -40.24 69.46 03/31/2016 14:17:50 73.90, -40.26 69.46 0.67 18




NCC Satellite Simultaneous Nadir Overpasses (SNOs) Prediction Service
